CW4525 Weather Reports


time (UTC)temp
C
wind
direction
speed
KPH
gust
KPH
rain 1hr
cm
rain 24hr
cm
rain mn
cm
humidity
%
barometer
mb
20260504201545 20 280 20.9 38.6 0.00 0.00 0.00 30 1002.3
20260504200043 21 250 24.1 45.1 0.00 0.00 0.00 31 1002.5
20260504194550 21 236 16.1 38.6 0.00 0.00 0.00 31 1002.4
20260504193046 21 209 19.3 35.4 0.00 0.00 0.00 32 1002.4
20260504191605 21 276 17.7 40.2 0.00 0.00 0.00 34 1002.5
20260504190040 20 228 12.9 41.8 0.00 0.00 0.00 32 1002.5
20260504184549 20 244 12.9 54.7 0.00 0.00 0.00 33 1002.5
20260504183035 20 262 19.3 40.2 0.00 0.00 0.00 32 1002.7
20260504181535 20 174 20.9 32.2 0.00 0.00 0.00 32 1002.6
20260504180035 19 250 17.7 45.1 0.00 0.00 0.00 33 1003.0
20260504174530 19 257 24.1 43.5 0.00 0.00 0.00 32 1003.0
20260504173029 19 242 20.9 43.5 0.00 0.00 0.00 33 1003.0
20260504171526 18 254 11.3 38.6 0.00 0.00 0.00 37 1003.0
20260504081549 6 213 6.4 14.5 0.00 0.00 0.00 62 1005.9
20260504044533 4 215 6.4 14.5 0.00 0.00 0.00 61 1006.1
20260504043026 4 229 6.4 14.5 0.00 0.00 0.00 61 1006.1
20260504041522 4 217 4.8 11.3 0.00 0.00 0.00 61 1006.0
20260504040020 4 231 6.4 12.9 0.00 0.00 0.00 61 1005.8
20260504034520 5 232 6.4 16.1 0.00 0.00 0.00 60 1005.9
20260504033019 5 205 6.4 11.3 0.00 0.00 0.00 60 1005.7
20260504031518 5 193 3.2 8.0 0.00 0.00 0.00 58 1005.6
20260504030017 5 199 6.4 11.3 0.00 0.00 0.00 58 1005.7
20260504024519 5 228 4.8 9.7 0.00 0.00 0.00 59 1005.7
20260504023017 5 220 6.4 11.3 0.00 0.00 0.00 59 1005.6
20260504021516 5 235 4.8 11.3 0.00 0.00 0.00 57 1005.6
20260504020015 6 210 4.8 9.7 0.00 0.00 0.00 56 1005.6
20260504014515 6 202 3.2 9.7 0.00 0.03 0.00 55 1005.5
20260504013023 6 221 1.6 8.0 0.00 0.03 0.00 55 1005.5
20260504011513 6 221 3.2 8.0 0.00 0.03 0.00 54 1005.1
20260504010013 6 250 0.0 1.6 0.00 0.03 0.00 54 1005.0
20260504004515 7 277 0.0 3.2 0.00 0.08 0.00 52 1004.8
20260504003022 7 277 1.6 8.0 0.00 0.08 0.00 51 1004.6
20260504001512 7 269 3.2 9.7 0.00 0.08 0.00 50 1004.5
20260504000011 8 303 6.4 14.5 0.00 0.08 0.00 48 1004.4
20260503234511 8 285 8.0 20.9 0.00 0.13 0.00 47 1004.3
20260503233011 8 263 11.3 22.5 0.00 0.13 0.00 47 1004.1
20260503231510 8 327 9.7 17.7 0.00 0.13 0.00 47 1004.0
20260503230010 8 232 9.7 24.1 0.00 0.13 0.00 46 1003.9
20260503224516 8 273 9.7 19.3 0.00 0.18 0.00 46 1003.9
20260503223010 8 303 12.9 32.2 0.00 0.18 0.00 45 1003.6
20260503221509 9 308 14.5 30.6 0.00 0.18 0.00 44 1003.4
20260503220017 10 305 17.7 40.2 0.00 0.18 0.00 43 1003.4
20260503214510 9 269 11.3 33.8 0.00 0.23 0.00 45 1003.4
20260503213008 9 263 19.3 35.4 0.00 0.23 0.00 42 1003.2
20260503211506 9 332 12.9 38.6 0.00 0.23 0.00 43 1002.9
20260503210007 9 275 25.7 38.6 0.00 0.23 0.00 41 1002.8
20260503204506 9 317 17.7 38.6 0.00 0.30 0.00 43 1002.7
20260503203003 9 301 20.9 37.0 0.00 0.30 0.00 43 1002.6